Flag for Germany Weather past 2 weeks in Schwerin, Mecklenburg-Western Pomerania, Germany

Now
40 °F

Drizzle. Overcast.


Feels Like: 34 °F
Forecast: 33 / 36 °F
Wind: 9 mph from Southwest

Location: Schwerin

Current Time: Jan 28, 2015 at 7:15:11 PM

Latest Report: Jan 28, 2015 at 6:00 PM


Visibility: 13 mi

Pressure: 29.29 "Hg

Humidity: 76%

Dew point: 33 °F

Location of SchwerinLocation

Historic Weather in Schwerin — Graph

°F

Schwerin temperature yesterday

Maximum temperature yesterday: 42 °F (at 2:00 PM)
Minimum temperature yesterday: 34 °F (at 9:00 PM)
Average temperature yesterday: 38 °F

Past Weeks' High & Low Weather Summary

 TemperatureHumidityPressure
High47 °F (Jan 15, 11:00 PM)100% (Jan 25, 7:00 PM)30.33 "Hg (Jan 25, 7:00 PM)
Low27 °F (Jan 23, 11:00 PM)67% (Jan 27, 3:00 PM)29.29 "Hg (Jan 28, 6:00 PM)
Average35 °F88%29.90 "Hg
* Reported Jan 13 6:00 PM — Jan 28 6:00 PM, Schwerin, Weather by CustomWeather, © 2014

Note: Actual official high and low records may vary slightly from our data, if they occured in-between our weather recording intervals... More about our weather records

Advertising

Schwerin weather history for previous 24 hours

 ConditionsComfort  
Time TempWeatherWind HumidityBarometerVisibility
6:00 PM
Jan 28
40 °FDrizzle. Overcast.9 mph76%29.29 "Hg12 mi
5:00 PM40 °FOvercast.8 mph77%29.35 "Hg14 mi
3:00 PM40 °FOvercast.7 mph80%29.47 "Hg12 mi
2:00 PM40 °FOvercast.8 mph80%29.55 "Hg10 mi
1:00 PM40 °FOvercast.8 mph84%29.60 "Hg8 mi
12:00 PM39 °FOvercast.8 mph87%29.67 "Hg6 mi
11:00 AM39 °FFog.9 mph90%29.73 "Hg4 mi
9:00 AM38 °FLow clouds.8 mph93%29.82 "Hg5 mi
8:00 AM37 °FLow clouds.7 mph93%29.84 "Hg6 mi
7:00 AM37 °FFog.7 mph96%29.87 "Hg4 mi
6:00 AM37 °FFog.7 mph98%29.89 "Hg3 mi
5:00 AM37 °FLow clouds.6 mph99%29.93 "Hg2 mi
3:00 AM36 °FLow clouds.5 mph100%29.97 "Hg1 mi
2:00 AM36 °FLow clouds.5 mph100%29.99 "Hg1 mi
1:00 AM35 °FLow clouds.6 mph100%30.01 "Hg1 mi
12:00 AM35 °FFog.3 mph100%30.02 "Hg2 mi
11:00 PM
Jan 27
35 °FFog.5 mph97%30.02 "Hg4 mi
9:00 PM34 °FClear.5 mph90%30.03 "Hg12 mi
8:00 PM36 °FPassing clouds.5 mph85%30.03 "Hg14 mi
7:00 PM37 °FPassing clouds.6 mph83%30.02 "Hg16 mi
Weather by CustomWeather, © 2014

See weather overviewHow to use our weather pages